When you browse on this site, cookies collect data to enhance your experience and personalize the content and advertising you see.
Visit our Privacy Policy to learn more. By continuing to use the site, you agree to this use of cookies and data.
  • Em Portugal
  • Lista de países
  • Para 7 dias
  • Temperatura da água
  • Mapas de satélite
  • Mapa do tempo
  • Widgets de tempo
  • user-avatar
    Iniciar Sessão

    Previsão horária em Hnyuh

    Hoje, 24 Junho, Segunda-feira

    Tempo Temperatura Precipitação Vento Pressão Humidade
    00:00 +13°C° 0 mm 2 m/s 594 mmHg 78%
    01:00 +13°C° 0 mm 2 m/s 594 mmHg 76%
    02:00 +13°C° 0 mm 2 m/s 594 mmHg 74%
    03:00 +13°C° 0 mm 2 m/s 594 mmHg 71%
    04:00 +14°C° 0 mm 2 m/s 594 mmHg 69%
    05:00 +16°C° 0 mm 2 m/s 595 mmHg 67%
    06:00 +17°C° 0 mm 2 m/s 596 mmHg 66%
    07:00 +19°C° 0 mm 2 m/s 596 mmHg 61%
    08:00 +20°C° 0 mm 2 m/s 597 mmHg 56%
    09:00 +23°C° 0 mm 2 m/s 598 mmHg 51%
    10:00 +23°C° 0.7 mm 2 m/s 598 mmHg 54%
    11:00 +23°C° 0.7 mm 2 m/s 598 mmHg 56%
    12:00 +22°C° 0.7 mm 3 m/s 598 mmHg 58%
    13:00 +22°C° 0.8 mm 3 m/s 597 mmHg 56%
    14:00 +23°C° 0.8 mm 2 m/s 597 mmHg 55%
    15:00 +23°C° 0 mm 2 m/s 597 mmHg 56%
    16:00 +21°C° 0.4 mm 2 m/s 597 mmHg 59%
    17:00 +22°C° 0.4 mm 1 m/s 597 mmHg 62%
    18:00 +21°C° 0.4 mm 1 m/s 596 mmHg 65%
    19:00 +19°C° 0.1 mm 1 m/s 596 mmHg 68%
    20:00 +16°C° 0.1 mm 1 m/s 595 mmHg 70%
    21:00 +14°C° 0.1 mm 1 m/s 594 mmHg 72%
    22:00 +14°C° 0 mm 1 m/s 594 mmHg 71%
    23:00 +14°C° 0 mm 1 m/s 594 mmHg 71%

    Amanhã, 25 Junho, Terça-feira

    Tempo Temperatura Precipitação Vento Pressão Humidade
    00:00 +13°C° 0 mm 1 m/s 594 mmHg 70%
    01:00 +13°C° 0 mm 1 m/s 594 mmHg 68%
    02:00 +13°C° 0 mm 1 m/s 594 mmHg 67%
    03:00 +13°C° 0 mm 1 m/s 594 mmHg 66%
    04:00 +14°C° 0 mm 1 m/s 594 mmHg 65%
    05:00 +15°C° 0 mm 1 m/s 595 mmHg 63%
    06:00 +18°C° 0 mm 1 m/s 596 mmHg 61%
    07:00 +19°C° 0 mm 1 m/s 597 mmHg 56%
    08:00 +21°C° 0 mm 1 m/s 598 mmHg 51%
    09:00 +22°C° 0 mm 1 m/s 598 mmHg 46%
    10:00 +23°C° 0.2 mm 2 m/s 598 mmHg 47%
    11:00 +23°C° 0.2 mm 2 m/s 598 mmHg 48%
    12:00 +24°C° 0.2 mm 3 m/s 599 mmHg 49%
    13:00 +22°C° 0.6 mm 3 m/s 598 mmHg 50%
    14:00 +23°C° 0.6 mm 2 m/s 598 mmHg 51%
    15:00 +23°C° 0.6 mm 2 m/s 598 mmHg 51%
    16:00 +21°C° 0.3 mm 2 m/s 598 mmHg 54%
    17:00 +21°C° 0.3 mm 2 m/s 598 mmHg 57%
    18:00 +20°C° 0.3 mm 2 m/s 597 mmHg 60%
    19:00 +19°C° 0.1 mm 1 m/s 596 mmHg 61%
    20:00 +16°C° 0.1 mm 1 m/s 596 mmHg 63%
    21:00 +14°C° 0.1 mm 1 m/s 595 mmHg 65%
    22:00 +13°C° 0 mm 1 m/s 595 mmHg 66%
    23:00 +13°C° 0 mm 1 m/s 594 mmHg 67%

    Depois de amanhã, 26 Junho, Quarta-feira

    Tempo Temperatura Precipitação Vento Pressão Humidade
    00:00 +12°C° 0 mm 1 m/s 594 mmHg 67%
    01:00 +12°C° 0 mm 1 m/s 594 mmHg 66%
    02:00 +12°C° 0 mm 1 m/s 594 mmHg 65%
    03:00 +12°C° 0 mm 1 m/s 594 mmHg 64%
    04:00 +13°C° 0 mm 1 m/s 595 mmHg 63%
    05:00 +15°C° 0 mm 1 m/s 596 mmHg 62%
    06:00 +16°C° 0 mm 1 m/s 596 mmHg 61%
    07:00 +19°C° 0.1 mm 1 m/s 597 mmHg 57%
    08:00 +20°C° 0.1 mm 1 m/s 598 mmHg 54%
    09:00 +21°C° 0.1 mm 1 m/s 599 mmHg 50%
    10:00 +20°C° 0.5 mm 2 m/s 598 mmHg 54%
    11:00 +20°C° 0.5 mm 2 m/s 598 mmHg 58%
    12:00 +20°C° 0.5 mm 3 m/s 598 mmHg 61%
    13:00 +20°C° 1.1 mm 2 m/s 598 mmHg 62%
    14:00 +20°C° 1.1 mm 2 m/s 598 mmHg 63%
    15:00 +20°C° 1.1 mm 2 m/s 598 mmHg 64%
    16:00 +19°C° 0.6 mm 2 m/s 597 mmHg 67%
    17:00 +18°C° 0.6 mm 2 m/s 597 mmHg 70%
    18:00 +19°C° 0.6 mm 1 m/s 596 mmHg 73%
    19:00 +16°C° 0.1 mm 1 m/s 596 mmHg 78%
    20:00 +13°C° 0.1 mm 0 m/s 595 mmHg 82%
    21:00 +12°C° 0.1 mm 0 m/s 594 mmHg 87%
    22:00 +11°C° 0 mm 0 m/s 594 mmHg 87%
    23:00 +11°C° 0 mm 0 m/s 594 mmHg 88%

    27 Junho, Quinta-feira

    Tempo Temperatura Precipitação Vento Pressão Humidade
    00:00 +10°C° 0 mm 0 m/s 594 mmHg 89%
    01:00 +11°C° 0 mm 1 m/s 593 mmHg 89%
    02:00 +11°C° 0 mm 1 m/s 593 mmHg 89%
    03:00 +11°C° 0 mm 1 m/s 593 mmHg 88%
    04:00 +11°C° 0.1 mm 0 m/s 594 mmHg 85%
    05:00 +12°C° 0.1 mm 0 m/s 594 mmHg 82%
    06:00 +14°C° 0.1 mm 0 m/s 595 mmHg 78%
    07:00 +16°C° 0.7 mm 1 m/s 595 mmHg 76%
    08:00 +18°C° 0.7 mm 1 m/s 596 mmHg 74%
    09:00 +18°C° 0.7 mm 2 m/s 596 mmHg 71%
    10:00 +18°C° 1.1 mm 2 m/s 596 mmHg 73%
    11:00 +18°C° 1.1 mm 2 m/s 596 mmHg 74%
    12:00 +18°C° 1.1 mm 2 m/s 595 mmHg 76%
    13:00 +17°C° 1 mm 2 m/s 595 mmHg 76%
    14:00 +17°C° 1 mm 2 m/s 595 mmHg 77%
    15:00 +17°C° 1 mm 2 m/s 594 mmHg 78%
    16:00 +17°C° 0.3 mm 2 m/s 594 mmHg 79%
    17:00 +17°C° 0.3 mm 2 m/s 594 mmHg 80%
    18:00 +16°C° 0.3 mm 2 m/s 594 mmHg 81%
    19:00 +15°C° 0.1 mm 1 m/s 593 mmHg 85%
    20:00 +14°C° 0.1 mm 1 m/s 592 mmHg 88%
    21:00 +12°C° 0.1 mm 1 m/s 592 mmHg 92%
    22:00 +12°C° 0 mm 1 m/s 591 mmHg 91%
    23:00 +11°C° 0 mm 1 m/s 591 mmHg 90%

    28 Junho, Sexta-feira

    Tempo Temperatura Precipitação Vento Pressão Humidade
    00:00 +11°C° 0 mm 1 m/s 590 mmHg 89%
    01:00 +11°C° 0 mm 1 m/s 590 mmHg 87%
    02:00 +11°C° 0 mm 1 m/s 590 mmHg 86%
    03:00 +11°C° 0 mm 1 m/s 590 mmHg 85%
    04:00 +12°C° 0 mm 1 m/s 590 mmHg 83%
    05:00 +13°C° 0 mm 1 m/s 590 mmHg 81%
    06:00 +14°C° 0 mm 2 m/s 591 mmHg 80%
    07:00 +15°C° 0 mm 2 m/s 591 mmHg 75%
    08:00 +17°C° 0 mm 2 m/s 592 mmHg 71%
    09:00 +18°C° 0 mm 2 m/s 592 mmHg 66%
    10:00 +19°C° 0.5 mm 2 m/s 592 mmHg 65%
    11:00 +19°C° 0.5 mm 2 m/s 592 mmHg 65%
    12:00 +20°C° 0.5 mm 2 m/s 592 mmHg 64%
    13:00 +19°C° 0.9 mm 2 m/s 591 mmHg 65%
    14:00 +19°C° 0.9 mm 2 m/s 591 mmHg 67%
    15:00 +19°C° 0.9 mm 2 m/s 590 mmHg 68%
    16:00 +19°C° 0.6 mm 2 m/s 590 mmHg 71%
    17:00 +18°C° 0.6 mm 2 m/s 590 mmHg 74%
    18:00 +18°C° 0.6 mm 1 m/s 589 mmHg 77%
    19:00 +16°C° 0 mm 1 m/s 589 mmHg 77%
    20:00 +15°C° 0 mm 1 m/s 589 mmHg 78%
    21:00 +14°C° 0 mm 1 m/s 588 mmHg 79%
    22:00 +13°C° 0.1 mm 1 m/s 588 mmHg 80%
    23:00 +13°C° 0.1 mm 1 m/s 588 mmHg 81%

    29 Junho, Sábado

    Tempo Temperatura Precipitação Vento Pressão Humidade
    00:00 +13°C° 0.1 mm 1 m/s 588 mmHg 82%
    01:00 +13°C° 0.1 mm 1 m/s 588 mmHg 83%
    02:00 +13°C° 0.1 mm 1 m/s 588 mmHg 84%
    03:00 +12°C° 0.1 mm 0 m/s 588 mmHg 85%
    04:00 +12°C° 0 mm 0 m/s 588 mmHg 85%
    05:00 +13°C° 0 mm 0 m/s 588 mmHg 85%
    06:00 +13°C° 0 mm 0 m/s 588 mmHg 84%
    07:00 +15°C° 0.1 mm 1 m/s 589 mmHg 81%
    08:00 +16°C° 0.1 mm 1 m/s 589 mmHg 77%
    09:00 +17°C° 0.1 mm 2 m/s 590 mmHg 73%
    10:00 +17°C° 0.8 mm 2 m/s 590 mmHg 73%
    11:00 +18°C° 0.8 mm 2 m/s 590 mmHg 73%
    12:00 +18°C° 0.8 mm 2 m/s 590 mmHg 73%
    13:00 +18°C° 0.8 mm 2 m/s 590 mmHg 73%
    14:00 +18°C° 0.8 mm 2 m/s 589 mmHg 72%
    15:00 +18°C° 0.8 mm 2 m/s 589 mmHg 71%
    16:00 +18°C° 0.5 mm 2 m/s 589 mmHg 74%
    17:00 +17°C° 0.5 mm 2 m/s 589 mmHg 78%
    18:00 +17°C° 0.5 mm 2 m/s 589 mmHg 81%
    19:00 +16°C° 0.3 mm 1 m/s 589 mmHg 84%
    20:00 +14°C° 0.3 mm 1 m/s 588 mmHg 87%
    21:00 +13°C° 0.3 mm 1 m/s 588 mmHg 90%
    22:00 +13°C° 0.6 mm 1 m/s 588 mmHg 92%
    23:00 +13°C° 0.6 mm 1 m/s 589 mmHg 93%
    Mostrar mais